Home > Weather > Oslo > Past weeks

Flag for Norway Past Weather in Oslo, Norway — Yesterday and Last 2 Weeks

Now
67 °F

Mild.


Feels Like: 67 °F
Forecast: 54 / 78 °F
Wind: 2 mph from Northeast

Location: Oslo-Blindern

Current Time: Jun 1, 2016 at 7:47:44 AM

Latest Report: Jun 1, 2016 at 7:00 AM


Visibility: 17 mi

Pressure: 30.19 "Hg

Humidity: 65%

Dew Point: 55 °F

Location of OsloLocation

Past Weather in Oslo — Graph

°F

Oslo Temperature Yesterday

Maximum temperature yesterday: 79 °F (at 5:00 PM)
Minimum temperature yesterday: 60 °F (at 4:00 AM)
Average temperature yesterday: 68 °F

High & Low Weather Summary for the Past Weeks

 TemperatureHumidityPressure
High79 °F (May 31, 5:00 PM)98% (May 22, 4:00 AM)30.20 "Hg (May 22, 4:00 AM)
Low39 °F (May 17, 6:00 AM)29% (May 17, 6:00 PM)29.62 "Hg (May 17, 7:00 PM)
Average56 °F72%29.96 "Hg
* Reported May 17 6:00 AM — Jun 1 6:00 AM, Oslo, Weather by CustomWeather, © 2016

Note: Actual official high and low records may vary slightly from our data, if they occured in-between our weather recording intervals... More about our weather records

Advertising

Oslo Weather History for the Previous 24 Hours

Scroll right to see more
 ConditionsComfort  
Time TempWeatherWind HumidityBarometerVisibility
6:00 AM
Wed, Jun 1
62 °FCool.2 mph70%30.19 "Hg17 mi
5:00 AM62 °FMild.3 mph68%30.19 "Hg17 mi
4:00 AM62 °FCool.2 mph67%30.20 "Hg19 mi
3:00 AM64 °FMild.2 mph63%30.19 "HgN/A
2:00 AM63 °FMild.2 mph69%30.19 "Hg17 mi
1:00 AM65 °FMild.2 mph63%30.18 "Hg17 mi
12:00 AM66 °FMild.2 mph60%30.16 "Hg16 mi
11:00 PM
Tue, May 31
68 °FMild.3 mph59%30.16 "HgN/A
10:00 PM72 °FMild.3 mph50%30.15 "Hg17 mi
9:00 PM75 °FMild.2 mph45%30.14 "Hg16 mi
8:00 PM77 °FScattered clouds.2 mph41%30.13 "Hg43 mi
7:00 PM77 °FWarm.2 mph40%30.12 "Hg16 mi
6:00 PM78 °FPleasantly warm.2 mph39%30.12 "HgN/A
5:00 PM79 °FPassing clouds.2 mph39%30.13 "Hg43 mi
2:00 PM76 °FPassing clouds.3 mph46%30.16 "Hg47 mi
1:00 PM73 °FMild.5 mph49%30.18 "Hg14 mi
12:00 PM71 °FMild.6 mph52%30.18 "Hg15 mi
11:00 AM69 °FMild.3 mph55%30.19 "Hg16 mi
10:00 AM68 °FMild.3 mph61%30.19 "Hg19 mi
9:00 AM65 °FMild.3 mph64%30.20 "Hg17 mi
8:00 AM64 °FMild.5 mph67%30.20 "Hg17 mi
7:00 AM61 °FCool.5 mph72%30.20 "HgN/A
Weather by CustomWeather, © 2016

See weather overviewHow to use our weather pages